Location: Владивосток
(43.1151°N, 131.8856°E)
Time: 15:18:38
(UTC+10:00)

deb Delta 89 - Visible Passes

Search period start: 16 July 2024 00:00
Search period end: 26 July 2024 00:00
Orbit: 555 x 670 km, 98.5° (Epoch: 15 July)

Date Brightness Start Highest point End Pass type
(mag) Time Alt. Az. Time Alt. Az. Time Alt. Az.
16 Jul ? 04:36:29 10° E 04:37:53 11° ENE 04:39:17 10° NE visible
17 Jul ? 04:50:05 10° E 04:52:38 16° ENE 04:55:13 10° NNE visible
18 Jul ? 05:04:12 10° ESE 05:07:24 22° ENE 05:10:41 10° NNE visible
23 Jul ? 04:44:06 10° E 04:46:17 14° ENE 04:48:30 10° NNE visible
24 Jul ? 04:57:59 10° ESE 05:00:58 19° ENE 05:04:03 10° NNE visible
25 Jul ? 05:12:11 10° ESE 05:15:42 26° ENE 05:19:20 10° N visible
